Date_and_time,latitude,longitude,wind_speed,RelWindDirFrom,WindDirFrom,air_pressure,air_temperature,relative_humidity,Temp,platform_speed_wrt_ground,air_pressure_at_mean_sea_level,platform_orientation
2019-12-17 23:50,50.630445,-96.980765,0.5,1.1,192,999.03,-23.6,62,0.42,0.0,1029.75,14.5
2019-12-18 00:00,50.630445,-96.980765,0.0,0.4,0,998.90,-23.6,63,0.41,0.0,1029.63,90.0
2019-12-18 00:00,50.630445,-96.980765,0.0,0.0,0,998.95,-23.4,63,0.42,0.0,1029.69,90.0
2019-12-18 00:10,50.6304633333333,-96.9807666666667,0.7,1.3,191,998.92,-23.7,63,0.41,0.0,1029.69,90.0
2019-12-18 00:20,50.6304583333333,-96.980765,2.0,3.4,195,998.89,-24.0,64,0.42,0.0,1029.69,90.0
2019-12-18 00:30,50.6304583333333,-96.9807566666667,2.3,3.0,207,998.94,-24.2,66,0.43,0.0,1029.76,90.0
2019-12-18 00:40,50.63046,-96.9807616666667,2.3,3.0,233,998.81,-24.0,65,0.43,0.0,1029.64,90.0
2019-12-18 00:50,50.6304566666667,-96.9807683333333,2.0,2.7,214,998.55,-24.1,65,0.42,0.0,1029.39,90.0
2019-12-18 01:00,50.6304483333333,-96.9807633333333,1.5,2.1,200,998.32,-24.4,66,0.42,0.0,1029.18,270.0
2019-12-18 01:10,50.6304466666667,-96.980765,2.8,3.7,220,998.26,-24.8,68,0.43,0.0,1029.15,270.0
2019-12-18 01:20,50.6304483333333,-96.9807633333333,3.6,4.5,229,998.28,-24.8,68,0.44,0.0,1029.20,270.0
2019-12-18 01:30,50.63045,-96.9807683333333,3.1,3.8,219,998.15,-25.0,67,0.45,0.0,1029.09,270.0
2019-12-18 01:40,50.6304516666667,-96.9807683333333,2.6,3.3,233,998.15,-25.2,69,0.44,0.0,1029.11,270.0
2019-12-18 01:50,50.6304633333333,-96.9807733333333,4.2,5.2,232,998.15,-25.4,69,0.44,0.0,1029.10,270.0
2019-12-18 02:00,50.6304616666667,-96.9807666666667,4.5,5.7,229,998.05,-25.7,69,0.44,0.0,1029.03,360.0
2019-12-18 02:10,50.63046,-96.9807616666667,5.2,6.4,229,998.09,-25.9,69,0.44,0.0,1029.11,360.0
2019-12-18 02:20,50.6304616666667,-96.9807633333333,4.7,5.8,225,998.00,-26.1,69,0.44,0.0,1029.05,360.0
2019-12-18 02:30,50.6304616666667,-96.9807616666667,4.1,5.4,226,997.97,-26.1,69,0.44,0.0,1028.99,360.0
2019-12-18 02:40,50.6304566666667,-96.9807616666667,4.0,5.1,225,997.75,-26.0,69,0.45,0.0,1028.78,360.0
2019-12-18 02:50,50.630455,-96.9807616666667,3.6,4.4,220,997.75,-26.0,69,0.45,0.0,1028.79,360.0
2019-12-18 03:00,50.6304566666667,-96.9807633333333,4.0,5.7,228,997.83,-26.2,69,0.45,0.0,1028.91,360.0
2019-12-18 03:10,50.630445,-96.98075,5.3,6.4,228,997.86,-26.2,70,0.45,0.0,1028.95,360.0
2019-12-18 03:20,50.6304516666667,-96.9807533333333,4.7,5.9,225,997.83,-26.3,69,0.44,0.0,1028.94,360.0
2019-12-18 03:30,50.6304666666667,-96.980765,4.0,5.4,221,997.70,-26.4,70,0.44,0.0,1028.82,360.0
2019-12-18 03:40,50.6304583333333,-96.9807733333333,4.1,5.1,221,997.47,-26.4,70,0.44,0.0,1028.60,360.0
2019-12-18 03:50,50.63046,-96.9807633333333,3.9,4.9,226,997.41,-26.3,71,0.44,0.0,1028.55,360.0
2019-12-18 04:00,50.6304566666667,-96.9807633333333,2.5,3.5,213,997.36,-26.3,71,0.44,0.0,1028.51,38.0
2019-12-18 04:10,50.630455,-96.9807683333333,2.0,2.6,191,997.32,-26.5,71,0.43,0.0,1028.49,38.0
2019-12-18 04:20,50.6304533333333,-96.98077,2.4,2.9,181,997.21,-26.7,71,0.43,0.0,1028.39,38.0
2019-12-18 04:30,50.6304516666667,-96.9807766666667,3.5,4.2,183,997.13,-27.4,71,0.43,0.0,1028.35,38.0
2019-12-18 04:40,50.63046,-96.9807783333333,4.3,5.0,179,997.15,-27.7,71,0.43,0.0,1028.38,38.0
2019-12-18 04:50,50.63046,-96.9807683333333,4.7,5.2,182,997.19,-28.0,71,0.42,0.0,1028.46,38.0
2019-12-18 05:00,50.6304566666667,-96.9807683333333,5.2,5.7,177,997.15,-28.0,72,0.42,0.0,1028.42,360.0
2019-12-18 05:10,50.6304566666667,-96.9807683333333,5.0,6.1,157,996.77,-28.0,72,0.42,0.0,1028.03,360.0
2019-12-18 05:20,50.6304566666667,-96.9807683333333,5.2,6.0,155,996.53,-27.4,73,0.41,0.0,1027.75,360.0
2019-12-18 05:30,50.6304566666667,-96.9807666666667,4.6,5.0,173,996.34,-27.1,72,0.41,0.0,1027.54,360.0
2019-12-18 05:40,50.6304666666667,-96.9807683333333,5.4,6.6,177,996.10,-27.2,72,0.39,0.0,1027.29,360.0
2019-12-18 05:50,50.6304666666667,-96.980765,6.8,8.0,176,995.97,-26.8,73,0.39,0.0,1027.14,360.0
2019-12-18 06:00,50.630465,-96.9807616666667,7.0,7.9,185,995.84,-26.8,73,0.39,0.0,1027.01,360.0
2019-12-18 06:10,50.6304616666667,-96.98076,7.0,7.9,182,995.60,-27.0,73,0.38,0.0,1026.79,360.0
2019-12-18 06:20,50.6304483333333,-96.980745,7.4,8.6,183,995.60,-26.9,73,0.38,0.0,1026.83,360.0
2019-12-18 06:30,50.6304633333333,-96.9808066666667,6.9,8.7,182,995.66,-26.9,73,0.37,0.0,1026.90,360.0
2019-12-18 06:40,50.6304666666667,-96.98078,6.1,7.5,183,995.75,-27.0,73,0.37,0.0,1027.02,360.0
2019-12-18 06:50,50.6304666666667,-96.980775,5.3,6.9,177,995.68,-27.1,72,0.37,0.0,1026.96,360.0
2019-12-18 07:00,50.630465,-96.9807716666667,5.7,7.0,172,995.56,-26.9,73,0.37,0.0,1026.83,360.0
2019-12-18 07:10,50.6304633333333,-96.9807716666667,6.4,7.9,171,995.37,-26.8,73,0.37,0.0,1026.58,360.0
2019-12-18 07:20,50.6304633333333,-96.9807716666667,7.2,9.6,167,995.15,-26.3,73,0.36,0.0,1026.31,360.0
2019-12-18 07:30,50.6304716666667,-96.9807816666667,9.1,11.0,169,994.98,-25.9,74,0.36,0.0,1026.11,360.0
2019-12-18 07:40,50.6304733333333,-96.9807766666667,8.5,10.6,175,994.92,-25.7,74,0.37,0.0,1026.01,360.0
2019-12-18 07:50,50.6304766666667,-96.9807616666667,9.4,12.8,170,994.73,-25.2,74,0.36,0.0,1025.78,360.0
2019-12-18 08:00,50.6304716666667,-96.98077,11.6,14.7,168,994.64,-24.6,74,0.36,0.0,1025.67,360.0
2019-12-18 08:10,50.6304683333333,-96.980765,11.0,13.9,171,994.32,-24.7,73,0.37,0.0,1025.33,360.0
2019-12-18 08:20,50.6304683333333,-96.98077,11.2,13.7,175,994.31,-24.7,73,0.36,0.0,1025.32,360.0
2019-12-18 08:30,50.6304633333333,-96.9807616666667,8.5,10.7,176,994.41,-24.7,73,0.35,0.0,1025.43,360.0
2019-12-18 08:40,50.6304833333333,-96.98079,10.8,13.4,182,994.53,-24.6,73,0.35,0.0,1025.55,360.0
2019-12-18 08:50,50.63047,-96.9807783333333,9.0,12.4,183,994.87,-24.5,73,0.34,0.0,1025.89,360.0
2019-12-18 09:00,50.6304683333333,-96.9807766666667,10.4,13.1,176,994.58,-24.4,72,0.34,0.0,1025.58,270.0
2019-12-18 09:10,50.6304666666667,-96.980775,10.0,13.3,169,994.24,-24.3,72,0.33,0.0,1025.19,270.0
2019-12-18 09:20,50.6304533333333,-96.98076,12.1,13.6,166,993.70,-24.0,72,0.33,0.0,1024.59,270.0
2019-12-18 09:30,50.6304716666667,-96.980735,12.1,14.3,167,993.59,-23.7,72,0.33,0.0,1024.44,270.0
2019-12-18 09:40,50.63046,-96.9807566666667,12.0,15.1,172,993.56,-23.5,72,0.32,0.0,1024.36,270.0
2019-12-18 09:50,50.6304566666667,-96.9807566666667,11.8,14.2,171,993.36,-23.3,72,0.32,0.0,1024.11,270.0
2019-12-18 10:00,50.630455,-96.98076,11.2,12.9,169,993.23,-22.9,72,0.32,0.0,1023.96,176.8
2019-12-18 10:10,50.6304583333333,-96.98078,12.7,15.0,163,992.89,-22.6,73,0.31,0.0,1023.59,176.8
2019-12-18 10:20,50.63048,-96.9807733333333,14.3,18.4,152,992.53,-22.5,73,0.31,0.0,1023.21,176.8
2019-12-18 10:30,50.63046,-96.9807383333333,15.6,18.5,150,992.28,-22.3,74,0.31,0.0,1022.93,176.8
2019-12-18 10:40,50.6304533333333,-96.9807666666667,15.2,19.1,147,992.12,-21.8,74,0.32,0.0,1022.74,176.8
2019-12-18 10:50,50.630455,-96.980765,16.7,19.9,144,991.77,-21.6,74,0.31,0.0,1022.36,176.8
2019-12-18 11:00,50.6304683333333,-96.98076,16.5,20.3,144,991.45,-21.5,74,0.31,0.0,1022.01,167.4
2019-12-18 11:10,50.6304566666667,-96.98077,17.3,21.4,148,991.24,-21.4,75,0.30,0.0,1021.77,167.4
2019-12-18 11:20,50.630455,-96.9807616666667,17.9,20.9,150,990.99,-21.3,75,0.31,0.0,1021.49,167.4
2019-12-18 11:30,50.6304583333333,-96.9807633333333,17.8,21.7,155,991.03,-21.2,75,0.31,0.0,1021.51,167.4
2019-12-18 11:40,50.6304616666667,-96.98076,17.9,21.7,154,990.89,-21.2,75,0.32,0.0,1021.35,167.4
2019-12-18 11:50,50.6304616666667,-96.9807583333333,16.6,20.6,154,990.84,-21.0,75,0.33,0.0,1021.27,167.4
2019-12-18 12:00,50.63046,-96.9807616666667,17.4,21.2,154,990.70,-20.9,74,0.33,0.0,1021.10,143.4
2019-12-18 12:10,50.6304616666667,-96.9807616666667,18.7,22.1,153,990.35,-20.8,74,0.32,0.0,1020.72,143.4
2019-12-18 12:20,50.6304633333333,-96.980765,17.4,22.4,154,990.29,-20.5,75,0.32,0.0,1020.63,143.4
2019-12-18 12:30,50.6304633333333,-96.9807666666667,17.5,20.1,148,990.08,-20.4,75,0.32,0.0,1020.38,143.4
2019-12-18 12:40,50.6304816666667,-96.9807983333333,17.6,20.9,148,989.96,-20.3,75,0.32,0.0,1020.23,143.4
2019-12-18 12:50,50.630455,-96.9807616666667,17.5,22.5,146,989.85,-20.1,75,0.32,0.0,1020.10,143.4
2019-12-18 13:00,50.6304733333333,-96.9807733333333,19.3,23.3,145,989.55,-20.0,75,0.34,0.0,1019.79,345.5
2019-12-18 13:10,50.6304616666667,-96.9807716666667,19.5,23.1,148,989.33,-19.8,75,0.35,0.0,1019.54,345.5
2019-12-18 13:20,50.63046,-96.9807683333333,21.0,24.2,150,989.04,-19.5,75,0.33,0.0,1019.21,345.5
2019-12-18 13:30,50.6304616666667,-96.9807683333333,22.2,26.0,150,988.81,-19.2,74,0.32,0.0,1018.96,345.5
2019-12-18 13:40,50.6304616666667,-96.9807666666667,22.6,26.5,150,988.63,-19.2,74,0.33,0.0,1018.76,345.5
2019-12-18 13:50,50.6304616666667,-96.98077,22.5,26.4,151,988.48,-19.2,74,0.36,0.0,1018.61,345.5
2019-12-18 14:00,50.63045,-96.9807566666667,22.0,26.8,152,988.30,-19.3,74,0.36,0.0,1018.41,161.1
2019-12-18 14:10,50.630465,-96.9807716666667,21.8,26.4,151,988.03,-19.2,74,0.34,0.0,1018.11,161.1
2019-12-18 14:20,50.6304666666667,-96.9807683333333,22.3,25.8,150,987.79,-19.1,74,0.32,0.0,1017.85,161.1
2019-12-18 14:30,50.6304733333333,-96.9807716666667,21.5,26.5,153,987.41,-19.0,75,0.31,0.0,1017.45,161.1
2019-12-18 14:40,50.630465,-96.98077,22.4,26.9,157,987.31,-18.9,74,0.30,0.0,1017.32,161.1
2019-12-18 14:50,50.630465,-96.980775,22.2,26.9,156,987.09,-18.8,74,0.30,0.0,1017.09,161.1
2019-12-18 15:00,50.6304633333333,-96.980775,20.9,25.6,155,987.05,-18.7,74,0.30,0.0,1017.03,305.3
2019-12-18 15:10,50.6304616666667,-96.9807716666667,22.7,26.7,155,986.62,-18.6,74,0.30,0.0,1016.57,305.3
2019-12-18 15:20,50.6304616666667,-96.9807716666667,22.7,27.6,156,986.36,-18.5,74,0.30,0.0,1016.27,305.3
2019-12-18 15:30,50.63046,-96.9807716666667,23.6,27.8,156,985.99,-18.2,74,0.31,0.0,1015.88,305.3
2019-12-18 15:40,50.63046,-96.98077,22.9,28.7,155,985.85,-18.0,74,0.33,0.0,1015.72,305.3
2019-12-18 15:50,50.63046,-96.98077,22.4,27.9,156,985.64,-17.7,74,0.33,0.0,1015.49,305.3
2019-12-18 16:00,50.6304583333333,-96.9807716666667,22.3,27.2,158,985.47,-17.6,74,0.32,0.0,1015.29,161.1
2019-12-18 16:10,50.6304566666667,-96.9807716666667,23.5,28.1,166,985.59,-17.3,72,0.32,0.0,1015.40,161.1
2019-12-18 16:20,50.6304566666667,-96.9807716666667,22.6,28.3,169,985.61,-17.1,69,0.32,0.0,1015.40,161.1
2019-12-18 16:30,50.6304483333333,-96.9807866666667,20.0,25.3,165,985.32,-16.9,70,0.31,0.0,1015.09,161.1
2019-12-18 16:40,50.6304533333333,-96.98077,17.8,24.0,167,985.35,-16.6,69,0.32,0.0,1015.10,161.1
2019-12-18 16:50,50.630455,-96.9807666666667,17.6,22.4,165,985.37,-16.3,68,0.34,0.0,1015.09,161.1
2019-12-18 17:00,50.6304566666667,-96.9807666666667,18.9,23.4,173,985.23,-15.8,60,0.33,0.0,1014.92,270.0
2019-12-18 17:10,50.6304533333333,-96.980765,19.0,23.4,176,985.07,-15.6,58,0.33,0.0,1014.72,270.0
2019-12-18 17:20,50.6304383333333,-96.98076,18.0,22.9,171,984.76,-15.3,58,0.32,0.0,1014.38,270.0
2019-12-18 17:30,50.6304516666667,-96.9807816666667,18.2,23.8,170,984.47,-15.0,56,0.33,0.0,1014.05,270.0
2019-12-18 17:40,50.6304483333333,-96.9807783333333,20.3,25.3,168,983.92,-15.0,57,0.33,0.0,1013.46,270.0
2019-12-18 17:50,50.6304166666667,-96.98079,20.9,26.5,167,983.81,-15.0,57,0.33,0.0,1013.34,270.0
2019-12-18 18:00,50.63045,-96.980785,20.2,25.6,171,983.74,-14.8,56,0.33,0.0,1013.24,216.6
2019-12-18 18:10,50.6304433333333,-96.9807816666667,18.5,22.7,171,983.62,-14.6,56,0.34,0.0,1013.10,216.6
2019-12-18 18:20,50.63044,-96.980775,17.6,22.1,172,983.43,-14.4,57,0.37,0.0,1012.87,216.6
2019-12-18 18:30,50.6304416666667,-96.9807716666667,15.3,19.6,177,983.61,-14.1,57,0.36,0.0,1013.02,216.6
2019-12-18 18:40,50.6304433333333,-96.9807683333333,17.2,26.6,184,983.55,-13.6,55,0.34,0.0,1012.92,216.6
2019-12-18 18:50,50.630445,-96.9807666666667,22.7,31.2,176,982.53,-13.5,56,0.33,0.0,1011.83,216.6
2019-12-18 19:00,50.630445,-96.9807666666667,22.5,27.7,174,981.84,-13.6,59,0.33,0.0,1011.11,360.0
2019-12-18 19:10,50.6304466666667,-96.9807666666667,20.9,26.8,173,981.70,-13.5,60,0.33,0.0,1010.96,360.0
2019-12-18 19:20,50.630445,-96.9807683333333,18.8,25.6,177,981.74,-13.2,60,0.33,0.0,1010.96,360.0
2019-12-18 19:30,50.630445,-96.9807683333333,16.4,22.3,181,982.02,-13.1,61,0.34,0.0,1011.24,360.0
2019-12-18 19:40,50.630445,-96.9807683333333,17.8,25.4,176,981.49,-12.7,62,0.34,0.0,1010.67,360.0
2019-12-18 19:50,50.630445,-96.9807683333333,21.7,28.1,175,980.62,-12.5,65,0.34,0.0,1009.75,360.0
2019-12-18 20:00,50.6304383333333,-96.980765,18.8,29.3,190,981.64,-12.4,65,0.34,0.0,1010.79,142.0
2019-12-18 20:10,50.6304283333333,-96.9807766666667,18.8,24.0,193,981.84,-12.5,65,0.35,0.0,1010.98,142.0
2019-12-18 20:20,50.6304383333333,-96.9807616666667,17.7,23.7,189,981.51,-12.8,66,0.34,0.0,1010.64,142.0
2019-12-18 20:30,50.6304416666667,-96.9807666666667,17.7,24.3,191,981.42,-13.1,68,0.36,0.0,1010.55,142.0
2019-12-18 20:40,50.6304416666667,-96.98077,16.9,21.2,190,981.61,-13.0,68,0.37,0.0,1010.73,142.0
2019-12-18 20:50,50.6304433333333,-96.98077,15.6,23.5,185,981.65,-13.0,69,0.37,0.0,1010.77,142.0
2019-12-18 21:00,50.6304433333333,-96.98077,18.7,23.2,185,981.36,-12.8,68,0.37,0.0,1010.46,137.2
2019-12-18 21:10,50.6304433333333,-96.9807716666667,19.3,24.7,186,981.22,-12.8,68,0.38,0.0,1010.30,137.2
2019-12-18 21:20,50.6304666666667,-96.980775,16.8,21.4,192,981.75,-12.8,69,0.38,0.0,1010.83,137.2
2019-12-18 21:30,50.6304566666667,-96.9807766666667,17.5,23.8,192,981.97,-13.1,70,0.40,0.0,1011.06,137.2
2019-12-18 21:40,50.6304533333333,-96.9807733333333,13.9,18.6,189,981.95,-13.3,71,0.40,0.0,1011.04,137.2
2019-12-18 21:50,50.6304566666667,-96.9807733333333,15.3,22.2,191,981.94,-13.4,72,0.39,0.0,1011.02,137.2
2019-12-18 22:00,50.6304566666667,-96.98077,16.0,22.8,188,981.75,-13.5,72,0.40,0.0,1010.84,360.0
2019-12-18 22:10,50.630455,-96.98077,13.1,18.8,191,982.00,-13.5,73,0.40,0.0,1011.11,360.0
2019-12-18 22:20,50.630455,-96.9807683333333,13.2,17.6,187,981.98,-13.6,73,0.40,0.0,1011.12,360.0
2019-12-18 22:30,50.630455,-96.9807683333333,15.0,18.7,183,981.79,-13.7,74,0.40,0.0,1010.92,360.0
2019-12-18 22:40,50.630455,-96.9807666666667,14.0,17.9,186,981.84,-13.7,74,0.40,0.0,1010.98,360.0
2019-12-18 22:50,50.630455,-96.980765,13.3,17.1,184,982.04,-13.8,74,0.40,0.0,1011.17,360.0
2019-12-18 23:00,50.6304533333333,-96.980765,12.0,16.0,188,982.34,-13.8,74,0.40,0.0,1011.48,38.0
2019-12-18 23:10,50.6304466666667,-96.9807633333333,11.4,14.7,189,982.35,-13.9,74,0.41,0.0,1011.50,38.0
2019-12-18 23:20,50.630455,-96.980755,11.6,15.3,188,982.44,-13.9,75,0.41,0.0,1011.61,38.0
2019-12-18 23:30,50.6304616666667,-96.9807616666667,10.2,13.7,188,982.47,-14.0,75,0.41,0.0,1011.66,38.0
